TimeEDT,TemperatureF,Dew PointF,Humidity,Sea Level PressureIn,VisibilityMPH,Wind Direction,Wind SpeedMPH,Gust SpeedMPH,PrecipitationIn,Events,Conditions,WindDirDegrees,DateUTC
12:51 AM,57.9,57.9,100,29.98,6.0,Calm,Calm,-,N/A,,Partly Cloudy,0,2013-06-19 04:51:00
1:05 AM,59.0,59.0,100,30.03,4.0,Calm,Calm,-,N/A,,Scattered Clouds,0,2013-06-19 05:05:00
1:14 AM,57.2,57.2,100,30.03,7.0,Calm,Calm,-,N/A,,Mostly Cloudy,0,2013-06-19 05:14:00
1:27 AM,57.2,57.2,100,30.03,5.0,Calm,Calm,-,N/A,,Scattered Clouds,0,2013-06-19 05:27:00
1:51 AM,57.9,57.9,100,29.98,5.0,South,3.5,-,N/A,,Clear,170,2013-06-19 05:51:00
2:08 AM,59.0,59.0,100,30.02,6.0,South,5.8,-,N/A,,Mostly Cloudy,170,2013-06-19 06:08:00
2:21 AM,59.0,59.0,100,30.02,6.0,Calm,Calm,-,N/A,,Scattered Clouds,0,2013-06-19 06:21:00
2:51 AM,57.9,57.9,100,29.97,5.0,SSE,3.5,-,N/A,,Clear,150,2013-06-19 06:51:00
3:23 AM,57.2,57.2,100,30.03,2.0,Calm,Calm,-,N/A,,Partly Cloudy,0,2013-06-19 07:23:00
3:26 AM,57.2,57.2,100,30.03,1.0,Calm,Calm,-,N/A,,Mist,0,2013-06-19 07:26:00
3:30 AM,57.2,57.2,100,30.02,0.2,Calm,Calm,-,N/A,Fog,Fog,0,2013-06-19 07:30:00
3:37 AM,57.2,57.2,100,30.02,0.2,Calm,Calm,-,N/A,Fog,Fog,0,2013-06-19 07:37:00
3:51 AM,57.0,57.0,100,29.98,0.5,Calm,Calm,-,N/A,Fog,Fog,0,2013-06-19 07:51:00
4:04 AM,57.2,57.2,100,30.02,0.2,Calm,Calm,-,N/A,Fog,Fog,0,2013-06-19 08:04:00
4:27 AM,57.2,57.2,100,30.02,0.5,South,5.8,-,N/A,Fog,Fog,170,2013-06-19 08:27:00
4:40 AM,57.2,57.2,100,30.02,0.5,South,5.8,-,N/A,Fog,Fog,170,2013-06-19 08:40:00
4:51 AM,57.9,57.9,100,29.96,1.0,SSW,3.5,-,N/A,,Mist,200,2013-06-19 08:51:00
5:34 AM,57.2,57.2,100,30.04,3.0,Calm,Calm,-,N/A,,Overcast,0,2013-06-19 09:34:00
5:51 AM,57.9,57.9,100,29.97,5.0,Calm,Calm,-,N/A,,Overcast,0,2013-06-19 09:51:00
6:10 AM,59.0,59.0,100,30.05,1.8,Calm,Calm,-,N/A,,Overcast,0,2013-06-19 10:10:00
6:19 AM,59.0,59.0,100,30.05,0.2,Calm,Calm,-,N/A,Fog,Fog,0,2013-06-19 10:19:00
6:51 AM,59.0,59.0,100,30.00,0.2,Calm,Calm,-,N/A,Fog,Fog,0,2013-06-19 10:51:00
7:46 AM,60.8,60.8,100,30.08,0.8,Calm,Calm,-,N/A,,Mist,0,2013-06-19 11:46:00
7:51 AM,60.1,60.1,100,30.02,0.8,Calm,Calm,-,N/A,,Mist,0,2013-06-19 11:51:00
8:05 AM,60.8,60.8,100,30.09,0.2,Calm,Calm,-,N/A,Fog,Fog,0,2013-06-19 12:05:00
8:51 AM,62.1,62.1,100,30.04,0.5,Calm,Calm,-,N/A,Fog,Fog,0,2013-06-19 12:51:00
9:02 AM,62.6,62.6,100,30.11,1.8,Calm,Calm,-,N/A,,Overcast,0,2013-06-19 13:02:00
9:12 AM,62.6,62.6,100,30.11,3.0,Calm,Calm,-,N/A,,Overcast,0,2013-06-19 13:12:00
9:23 AM,62.6,62.6,100,30.11,5.0,Calm,Calm,-,N/A,,Overcast,0,2013-06-19 13:23:00
9:31 AM,62.6,62.6,100,30.11,5.0,Calm,Calm,-,N/A,,Overcast,0,2013-06-19 13:31:00
9:40 AM,64.4,64.4,100,30.11,5.0,Calm,Calm,-,N/A,,Overcast,0,2013-06-19 13:40:00
9:51 AM,66.0,64.0,93,30.05,6.0,Calm,Calm,-,N/A,,Overcast,0,2013-06-19 13:51:00
10:51 AM,69.1,64.0,84,30.05,10.0,West,4.6,-,N/A,,Overcast,260,2013-06-19 14:51:00
11:01 AM,68.0,64.4,88,30.12,10.0,Calm,Calm,-,N/A,,Mostly Cloudy,0,2013-06-19 15:01:00
11:12 AM,69.8,64.4,83,30.12,10.0,Variable,4.6,-,N/A,,Mostly Cloudy,0,2013-06-19 15:12:00
11:51 AM,73.9,61.0,64,30.05,10.0,NNE,3.5,-,N/A,,Mostly Cloudy,20,2013-06-19 15:51:00
12:51 PM,73.0,62.1,68,30.06,10.0,Calm,Calm,-,N/A,,Scattered Clouds,0,2013-06-19 16:51:00
1:11 PM,71.6,62.6,73,30.13,10.0,NNE,6.9,-,N/A,,Overcast,20,2013-06-19 17:11:00
1:21 PM,73.4,62.6,69,30.13,10.0,Variable,5.8,-,N/A,,Mostly Cloudy,0,2013-06-19 17:21:00
1:51 PM,73.9,62.1,66,30.06,10.0,NW,8.1,-,N/A,,Partly Cloudy,320,2013-06-19 17:51:00
2:51 PM,73.9,60.1,62,30.05,10.0,North,8.1,-,N/A,,Mostly Cloudy,10,2013-06-19 18:51:00
3:51 PM,75.9,57.0,52,30.04,10.0,NNE,8.1,-,N/A,,Scattered Clouds,20,2013-06-19 19:51:00
4:51 PM,77.0,57.9,52,30.04,10.0,North,8.1,-,N/A,,Clear,350,2013-06-19 20:51:00
5:51 PM,75.0,59.0,57,30.04,10.0,North,5.8,-,N/A,,Partly Cloudy,350,2013-06-19 21:51:00
6:51 PM,73.9,61.0,64,30.05,10.0,North,10.4,-,N/A,,Clear,360,2013-06-19 22:51:00
7:51 PM,72.0,62.1,71,30.07,10.0,North,4.6,-,N/A,,Clear,350,2013-06-19 23:51:00
8:51 PM,69.1,59.0,70,30.08,10.0,NE,3.5,-,N/A,,Clear,40,2013-06-20 00:51:00
9:51 PM,63.0,61.0,93,30.10,10.0,Calm,Calm,-,N/A,,Clear,0,2013-06-20 01:51:00
10:51 PM,61.0,59.0,93,30.13,10.0,Calm,Calm,-,N/A,,Clear,0,2013-06-20 02:51:00
11:51 PM,62.1,59.0,90,30.12,10.0,Calm,Calm,-,N/A,,Clear,0,2013-06-20 03:51:00